RYR6XU LEMD-EINN

Flight info

Callsign RYR6XU
Flight time 2h 5m
Altitude 34000
Route SIE N865 DELOG/N0457F360 DCT EKDAP DCT TULTA/M079F360 DCT MAPAG/N0452F360 DCT KURUM KURUM2D
Aircraft B738/M-SDE2E3FGHIRWXY/LB1

Departure

Time 2026-05-04 13:44
Airport Adolfo Suárez Madrid–Barajas Airport (LEMD)

Arrival

Time 2026-05-04 15:49
Airport Shannon Airport (EINN)
Time Latitude Longitude Altitude Speed Heading
2026-05-04 13:09 40.46465 -3.56824 1971 ft 0 kts 273°
2026-05-04 13:29 40.46464 -3.56807 1976 ft 4 kts 273°
2026-05-04 13:30 40.46463 -3.56774 1975 ft 2 kts 273°
2026-05-04 13:30 40.46462 -3.56757 1975 ft 2 kts 265°
2026-05-04 13:30 40.46469 -3.56727 1974 ft 4 kts 219°
2026-05-04 13:30 40.46491 -3.56717 1975 ft 4 kts 183°
2026-05-04 13:31 40.46505 -3.56716 1975 ft 0 kts 183°
2026-05-04 13:35 40.46504 -3.56716 1975 ft 1 kts 183°
2026-05-04 13:35 40.46454 -3.56720 1973 ft 6 kts 184°
2026-05-04 13:35 40.46401 -3.56729 1973 ft 9 kts 190°
2026-05-04 13:36 40.46338 -3.56752 1971 ft 10 kts 181°
2026-05-04 13:36 40.46296 -3.56688 1971 ft 11 kts 92°
2026-05-04 13:36 40.46296 -3.56578 1972 ft 13 kts 90°
2026-05-04 13:36 40.46350 -3.56497 1970 ft 14 kts
2026-05-04 13:37 40.46450 -3.56490 1971 ft 15 kts
2026-05-04 13:37 40.46554 -3.56482 1975 ft 15 kts
2026-05-04 13:37 40.46662 -3.56474 1972 ft 16 kts
2026-05-04 13:37 40.46777 -3.56465 1973 ft 17 kts
2026-05-04 13:38 40.46895 -3.56455 1975 ft 17 kts
2026-05-04 13:38 40.47014 -3.56452 1979 ft 17 kts 358°
2026-05-04 13:38 40.47123 -3.56491 1982 ft 16 kts 340°
2026-05-04 13:38 40.47214 -3.56573 1982 ft 16 kts 322°
2026-05-04 13:39 40.47297 -3.56659 1987 ft 15 kts 322°
2026-05-04 13:39 40.47377 -3.56742 1987 ft 14 kts 321°
2026-05-04 13:39 40.47455 -3.56819 1989 ft 14 kts 322°
2026-05-04 13:39 40.47529 -3.56894 1991 ft 13 kts 323°
2026-05-04 13:40 40.47599 -3.56965 1993 ft 13 kts 322°
2026-05-04 13:40 40.47669 -3.57037 1996 ft 13 kts 322°
2026-05-04 13:40 40.47736 -3.57105 1998 ft 12 kts 322°
2026-05-04 13:40 40.47802 -3.57172 2000 ft 12 kts 322°
2026-05-04 13:41 40.47866 -3.57239 2002 ft 12 kts 321°
2026-05-04 13:41 40.47915 -3.57287 2004 ft 7 kts 324°
2026-05-04 13:41 40.47957 -3.57329 2004 ft 9 kts 319°
2026-05-04 13:42 40.48085 -3.57459 2001 ft 14 kts 323°
2026-05-04 13:42 40.48159 -3.57486 2000 ft 10 kts 28°
2026-05-04 13:42 40.48168 -3.57404 2002 ft 10 kts 98°
2026-05-04 13:42 40.48159 -3.57318 2001 ft 10 kts 98°
2026-05-04 13:43 40.48133 -3.57237 2004 ft 10 kts 142°
2026-05-04 13:43 40.48129 -3.57233 2003 ft 0 kts 143°
2026-05-04 13:43 40.48105 -3.57211 2004 ft 22 kts 144°
2026-05-04 13:43 40.47738 -3.56841 1994 ft 109 kts 140°
2026-05-04 13:44 40.46936 -3.56029 1992 ft 179 kts 145°
2026-05-04 13:44 40.45887 -3.54894 2541 ft 207 kts 143°
2026-05-04 13:44 40.44795 -3.53665 3502 ft 208 kts 144°
2026-05-04 13:44 40.43710 -3.52419 4357 ft 215 kts 134°
2026-05-04 13:45 40.42827 -3.50689 4628 ft 241 kts 123°
2026-05-04 13:45 40.41773 -3.48971 5181 ft 243 kts 142°
2026-05-04 13:45 40.40488 -3.47516 5861 ft 245 kts 142°
2026-05-04 13:45 40.39209 -3.46017 6553 ft 250 kts 141°
2026-05-04 13:46 40.37908 -3.44473 7283 ft 253 kts 142°
2026-05-04 13:46 40.36602 -3.42913 8111 ft 254 kts 141°
2026-05-04 13:46 40.35183 -3.41532 8735 ft 261 kts 162°
2026-05-04 13:46 40.33389 -3.41271 9061 ft 270 kts 196°
2026-05-04 13:47 40.31670 -3.42203 9850 ft 270 kts 214°
2026-05-04 13:47 40.30141 -3.43677 10407 ft 282 kts 220°
2026-05-04 13:47 40.28541 -3.45362 10584 ft 308 kts 221°
2026-05-04 13:47 40.26807 -3.47178 10845 ft 329 kts 221°
2026-05-04 13:48 40.25325 -3.49473 11470 ft 333 kts 243°
2026-05-04 13:48 40.24636 -3.52351 12305 ft 334 kts 263°
2026-05-04 13:48 40.24779 -3.55388 13107 ft 340 kts 283°
2026-05-04 13:48 40.25774 -3.58231 13783 ft 351 kts 303°
2026-05-04 13:49 40.27501 -3.60468 14498 ft 357 kts 316°
2026-05-04 13:49 40.29057 -3.62946 15200 ft 352 kts 292°
2026-05-04 13:49 40.29687 -3.66011 15941 ft 349 kts 278°
2026-05-04 13:49 40.30443 -3.69040 16621 ft 357 kts 298°
2026-05-04 13:50 40.32095 -3.71496 17321 ft 367 kts 319°
2026-05-04 13:50 40.34390 -3.73046 18015 ft 379 kts 339°
2026-05-04 13:50 40.37043 -3.73505 18616 ft 393 kts 358°
2026-05-04 13:50 40.39764 -3.72799 19181 ft 403 kts 12°
2026-05-04 13:51 40.42491 -3.71986 19737 ft 401 kts 358°
2026-05-04 13:51 40.45200 -3.72313 20335 ft 396 kts 348°
2026-05-04 13:51 40.47952 -3.72712 20930 ft 400 kts 351°
2026-05-04 13:51 40.50745 -3.72943 21477 ft 404 kts 353°
2026-05-04 13:52 40.56402 -3.73209 22560 ft 410 kts 354°
2026-05-04 13:52 40.59263 -3.73332 23099 ft 413 kts 354°
2026-05-04 13:52 40.62142 -3.73465 23617 ft 415 kts 354°
2026-05-04 13:53 40.65042 -3.73552 24028 ft 420 kts 358°
2026-05-04 13:53 40.67972 -3.73045 24413 ft 429 kts
2026-05-04 13:53 40.70868 -3.72251 24797 ft 433 kts
2026-05-04 13:54 40.76797 -3.70541 25541 ft 440 kts
2026-05-04 13:54 40.79803 -3.69710 25901 ft 443 kts
2026-05-04 13:54 40.85885 -3.68102 26626 ft 449 kts
2026-05-04 13:55 40.88956 -3.67308 27017 ft 451 kts
2026-05-04 13:55 40.95153 -3.65710 27690 ft 457 kts
2026-05-04 13:55 40.98246 -3.64911 28008 ft 461 kts
2026-05-04 13:56 41.01401 -3.64093 28322 ft 463 kts
2026-05-04 13:56 41.04572 -3.63269 28646 ft 466 kts
2026-05-04 13:56 41.10960 -3.61607 29349 ft 469 kts
2026-05-04 13:57 41.14172 -3.60771 29646 ft 472 kts
2026-05-04 13:57 41.17412 -3.60263 29881 ft 469 kts 356°
2026-05-04 13:58 41.27091 -3.60694 30924 ft 465 kts 352°
2026-05-04 13:58 41.33573 -3.60974 31547 ft 467 kts 354°
2026-05-04 13:58 41.36821 -3.61066 31868 ft 467 kts 354°
2026-05-04 13:59 41.40071 -3.61145 32172 ft 467 kts 354°
2026-05-04 13:59 41.43322 -3.61222 32470 ft 468 kts 354°
2026-05-04 13:59 41.49826 -3.61384 33052 ft 468 kts 354°
2026-05-04 14:00 41.53042 -3.61442 33362 ft 469 kts 355°
2026-05-04 14:00 41.59590 -3.61439 33921 ft 470 kts 355°
2026-05-04 14:00 41.62878 -3.61423 33967 ft 475 kts 355°
2026-05-04 14:01 41.69502 -3.61404 33967 ft 475 kts 355°
2026-05-04 14:02 41.79270 -3.61396 33977 ft 468 kts 355°
2026-05-04 14:02 41.85735 -3.61397 33977 ft 463 kts 355°
2026-05-04 14:03 41.92175 -3.61400 33976 ft 462 kts 355°
2026-05-04 14:03 41.98613 -3.61400 33984 ft 463 kts 355°
2026-05-04 14:04 42.08216 -3.61653 33977 ft 461 kts 352°
2026-05-04 14:04 42.14617 -3.62135 33993 ft 461 kts 352°
2026-05-04 14:05 42.24261 -3.62782 34026 ft 463 kts 353°
2026-05-04 14:06 42.30666 -3.63178 34020 ft 464 kts 353°
2026-05-04 14:06 42.37118 -3.63653 34025 ft 463 kts 349°
2026-05-04 14:07 42.43488 -3.64878 34028 ft 462 kts 346°
2026-05-04 14:07 42.49836 -3.66275 34015 ft 463 kts 347°
2026-05-04 14:08 42.56214 -3.67594 34031 ft 464 kts 348°
2026-05-04 14:08 42.62563 -3.68866 34017 ft 465 kts 348°
2026-05-04 14:09 42.72179 -3.70740 34004 ft 466 kts 349°
2026-05-04 14:10 42.81842 -3.72354 34008 ft 466 kts 349°
2026-05-04 14:10 42.88231 -3.73424 34016 ft 465 kts 349°
2026-05-04 14:11 42.94649 -3.74517 34023 ft 464 kts 349°
2026-05-04 14:11 43.04257 -3.76169 34024 ft 464 kts 349°
2026-05-04 14:12 43.10664 -3.77274 34027 ft 464 kts 349°
2026-05-04 14:13 43.20225 -3.78926 34052 ft 464 kts 349°
2026-05-04 14:13 43.26619 -3.80034 34044 ft 464 kts 349°
2026-05-04 14:14 43.33025 -3.81146 34044 ft 464 kts 349°
2026-05-04 14:14 43.42595 -3.82812 34059 ft 464 kts 349°
2026-05-04 14:15 43.55430 -3.85055 34043 ft 465 kts 349°
2026-05-04 14:16 43.65062 -3.86744 34025 ft 466 kts 350°
2026-05-04 14:17 43.74670 -3.88435 34012 ft 466 kts 350°
2026-05-04 14:18 43.84334 -3.90141 34005 ft 467 kts 350°
2026-05-04 14:19 43.97185 -3.92418 34013 ft 467 kts 350°
2026-05-04 14:19 44.03630 -3.93564 34001 ft 468 kts 350°
2026-05-04 14:20 44.10094 -3.94716 34002 ft 468 kts 350°
2026-05-04 14:20 44.16547 -3.95868 34014 ft 468 kts 350°
2026-05-04 14:21 44.26207 -3.97598 34002 ft 469 kts 350°
2026-05-04 14:21 44.32578 -3.99350 33996 ft 465 kts 338°
2026-05-04 14:22 44.38264 -4.03453 34010 ft 459 kts 324°
2026-05-04 14:22 44.43574 -4.08401 33990 ft 459 kts 323°
2026-05-04 14:23 44.51565 -4.15838 33997 ft 460 kts 323°
2026-05-04 14:24 44.56884 -4.20734 34001 ft 461 kts 324°
2026-05-04 14:24 44.62250 -4.25668 33995 ft 461 kts 324°
2026-05-04 14:25 44.67619 -4.30616 33999 ft 462 kts 324°
2026-05-04 14:25 44.75640 -4.38031 33993 ft 462 kts 324°
2026-05-04 14:26 44.81004 -4.43005 33996 ft 462 kts 324°
2026-05-04 14:26 44.86377 -4.47999 33998 ft 462 kts 324°
2026-05-04 14:27 44.91737 -4.52992 34001 ft 462 kts 324°
2026-05-04 14:27 44.97104 -4.58003 33993 ft 462 kts 324°
2026-05-04 14:28 45.02469 -4.63023 33994 ft 463 kts 324°
2026-05-04 14:28 45.07797 -4.68020 33992 ft 462 kts 323°
2026-05-04 14:29 45.18503 -4.78097 33994 ft 462 kts 324°
2026-05-04 14:30 45.23849 -4.83146 33996 ft 462 kts 323°
2026-05-04 14:31 45.31831 -4.90704 33995 ft 462 kts 324°
2026-05-04 14:32 45.42751 -5.00394 33992 ft 463 kts 326°
2026-05-04 14:32 45.48234 -5.05212 33992 ft 463 kts 326°
2026-05-04 14:33 45.53673 -5.10036 33998 ft 464 kts 326°
2026-05-04 14:33 45.59145 -5.14915 33990 ft 464 kts 326°
2026-05-04 14:34 45.64614 -5.19806 33992 ft 464 kts 326°
2026-05-04 14:34 45.70081 -5.24704 33991 ft 464 kts 326°
2026-05-04 14:35 45.75538 -5.29605 33992 ft 463 kts 326°
2026-05-04 14:35 45.80961 -5.34486 33990 ft 463 kts 326°
2026-05-04 14:36 45.86415 -5.39407 33992 ft 463 kts 326°
2026-05-04 14:36 45.91866 -5.44337 33989 ft 463 kts 326°
2026-05-04 14:37 45.97315 -5.49276 33990 ft 463 kts 326°
2026-05-04 14:37 46.02725 -5.54192 33988 ft 463 kts 326°
2026-05-04 14:38 46.08162 -5.59145 33996 ft 463 kts 326°
2026-05-04 14:38 46.13604 -5.64112 33990 ft 463 kts 326°
2026-05-04 14:39 46.19041 -5.69087 33986 ft 462 kts 326°
2026-05-04 14:39 46.24434 -5.74033 33984 ft 462 kts 326°
2026-05-04 14:40 46.32567 -5.81516 33990 ft 462 kts 326°
2026-05-04 14:40 46.37980 -5.86510 33991 ft 462 kts 326°
2026-05-04 14:41 46.43396 -5.91520 33985 ft 462 kts 326°
2026-05-04 14:42 46.54186 -6.01535 33991 ft 462 kts 326°
2026-05-04 14:42 46.59596 -6.06575 33990 ft 462 kts 326°
2026-05-04 14:43 46.64966 -6.11591 33990 ft 462 kts 326°
2026-05-04 14:43 46.70360 -6.16639 33987 ft 461 kts 326°
2026-05-04 14:44 46.75748 -6.21694 33995 ft 460 kts 326°
2026-05-04 14:44 46.81124 -6.26751 33990 ft 459 kts 327°
2026-05-04 14:45 46.86491 -6.31812 33982 ft 459 kts 327°
2026-05-04 14:45 46.91816 -6.36845 33993 ft 459 kts 327°
2026-05-04 14:46 46.97173 -6.41920 33979 ft 459 kts 326°
2026-05-04 14:46 47.02529 -6.47006 33981 ft 459 kts 327°
2026-05-04 14:47 47.07877 -6.52097 33998 ft 459 kts 327°
2026-05-04 14:47 47.13199 -6.57176 33991 ft 459 kts 327°
2026-05-04 14:48 47.18558 -6.62303 33999 ft 460 kts 327°
2026-05-04 14:48 47.23916 -6.67442 33991 ft 460 kts 327°
2026-05-04 14:49 47.29272 -6.72590 33994 ft 459 kts 327°
2026-05-04 14:49 47.34620 -6.77744 33987 ft 459 kts 327°
2026-05-04 14:50 47.39923 -6.82868 33986 ft 458 kts 327°
2026-05-04 14:50 47.45246 -6.88022 33988 ft 458 kts 327°
2026-05-04 14:51 47.50564 -6.93185 33991 ft 457 kts 327°
2026-05-04 14:51 47.55874 -6.98352 33982 ft 457 kts 327°
2026-05-04 14:52 47.61142 -7.03492 33981 ft 456 kts 327°
2026-05-04 14:52 47.66439 -7.08673 33987 ft 456 kts 327°
2026-05-04 14:53 47.71732 -7.13862 33991 ft 456 kts 327°
2026-05-04 14:53 47.77015 -7.19055 34005 ft 455 kts 327°
2026-05-04 14:54 47.82294 -7.24256 33997 ft 455 kts 327°
2026-05-04 14:54 47.87525 -7.29423 33990 ft 454 kts 327°
2026-05-04 14:55 47.92776 -7.34622 33996 ft 452 kts 327°
2026-05-04 14:55 47.98012 -7.39820 33990 ft 452 kts 327°
2026-05-04 14:56 48.03236 -7.45018 33991 ft 451 kts 327°
2026-05-04 14:56 48.08409 -7.50179 33996 ft 450 kts 327°
2026-05-04 14:57 48.13616 -7.55386 33994 ft 450 kts 327°
2026-05-04 14:57 48.18821 -7.60604 33995 ft 450 kts 327°
2026-05-04 14:58 48.23990 -7.65798 33998 ft 450 kts 327°
2026-05-04 14:58 48.29193 -7.71041 34001 ft 451 kts 327°
2026-05-04 14:59 48.34399 -7.76299 34006 ft 451 kts 327°
2026-05-04 15:00 48.42195 -7.84199 33997 ft 450 kts 327°
2026-05-04 15:00 48.47387 -7.89477 34007 ft 450 kts 327°
2026-05-04 15:01 48.55144 -7.97320 34001 ft 448 kts 332°
2026-05-04 15:01 48.60901 -8.00718 34003 ft 444 kts 350°
2026-05-04 15:02 48.66995 -8.02006 34006 ft 442 kts 354°
2026-05-04 15:02 48.73061 -8.03100 34005 ft 442 kts 354°
2026-05-04 15:03 48.79158 -8.04247 34004 ft 442 kts 354°
2026-05-04 15:03 48.85257 -8.05439 34005 ft 442 kts 354°
2026-05-04 15:04 48.91353 -8.06650 34007 ft 442 kts 354°
2026-05-04 15:04 48.97450 -8.07866 34005 ft 442 kts 354°
2026-05-04 15:05 49.03550 -8.09085 34003 ft 442 kts 354°
2026-05-04 15:05 49.09598 -8.10296 34009 ft 442 kts 354°
2026-05-04 15:06 49.15696 -8.11519 34007 ft 442 kts 354°
2026-05-04 15:07 49.24828 -8.13357 33996 ft 441 kts 354°
2026-05-04 15:07 49.30908 -8.14585 34005 ft 441 kts 354°
2026-05-04 15:08 49.36949 -8.15807 34007 ft 440 kts 354°
2026-05-04 15:08 49.43008 -8.17036 34009 ft 440 kts 354°
2026-05-04 15:09 49.49070 -8.18270 34002 ft 439 kts 355°
2026-05-04 15:09 49.55112 -8.19502 34009 ft 438 kts 355°
2026-05-04 15:10 49.64134 -8.21347 34016 ft 437 kts 355°
2026-05-04 15:11 49.73167 -8.23201 34021 ft 436 kts 355°
2026-05-04 15:11 49.79177 -8.24439 34020 ft 435 kts 355°
2026-05-04 15:12 49.85134 -8.25668 34030 ft 435 kts 355°
2026-05-04 15:12 49.91139 -8.26911 34011 ft 436 kts 355°
2026-05-04 15:13 49.97135 -8.28156 34024 ft 434 kts 355°
2026-05-04 15:13 50.03115 -8.29400 34031 ft 433 kts 355°
2026-05-04 15:14 50.09038 -8.30635 34034 ft 433 kts 355°
2026-05-04 15:14 50.15005 -8.31882 34028 ft 432 kts 356°
2026-05-04 15:15 50.20951 -8.33129 34027 ft 430 kts 356°
2026-05-04 15:15 50.26868 -8.34373 34036 ft 429 kts 356°
2026-05-04 15:16 50.35679 -8.36229 34018 ft 427 kts 356°
2026-05-04 15:17 50.44482 -8.38092 34047 ft 425 kts 356°
2026-05-04 15:17 50.53277 -8.39959 34049 ft 425 kts 356°
2026-05-04 15:18 50.59143 -8.41208 34038 ft 425 kts 357°
2026-05-04 15:19 50.67890 -8.43078 34060 ft 425 kts 356°
2026-05-04 15:19 50.76673 -8.44961 34077 ft 425 kts 356°
2026-05-04 15:20 50.82537 -8.46222 34063 ft 426 kts 356°
2026-05-04 15:20 50.88420 -8.47491 34061 ft 427 kts 356°
2026-05-04 15:21 50.94325 -8.48769 34058 ft 429 kts 356°
2026-05-04 15:21 51.00246 -8.50045 33763 ft 434 kts 357°
2026-05-04 15:22 51.03201 -8.50542 33291 ft 427 kts 360°
2026-05-04 15:22 51.06134 -8.50938 32862 ft 421 kts
2026-05-04 15:22 51.11894 -8.51633 32036 ft 410 kts
2026-05-04 15:23 51.14719 -8.51977 31610 ft 405 kts
2026-05-04 15:23 51.17513 -8.52327 31205 ft 400 kts
2026-05-04 15:23 51.20274 -8.52680 30790 ft 396 kts
2026-05-04 15:23 51.23003 -8.53035 30376 ft 391 kts
2026-05-04 15:24 51.28369 -8.53742 29524 ft 381 kts
2026-05-04 15:24 51.33532 -8.54427 28724 ft 370 kts
2026-05-04 15:25 51.36081 -8.54765 28322 ft 365 kts
2026-05-04 15:25 51.38599 -8.55099 27924 ft 361 kts
2026-05-04 15:25 51.41093 -8.55429 27526 ft 358 kts
2026-05-04 15:26 51.46025 -8.56082 26747 ft 357 kts
2026-05-04 15:26 51.48516 -8.56408 26354 ft 361 kts
2026-05-04 15:26 51.53439 -8.57065 25572 ft 354 kts
2026-05-04 15:27 51.55886 -8.57394 25187 ft 351 kts
2026-05-04 15:27 51.60737 -8.58045 24434 ft 348 kts
2026-05-04 15:28 51.65570 -8.58692 23687 ft 350 kts
2026-05-04 15:28 51.68000 -8.59017 23234 ft 350 kts 360°
2026-05-04 15:28 51.72806 -8.59667 22439 ft 343 kts 360°
2026-05-04 15:29 51.75148 -8.59984 22055 ft 341 kts 359°
2026-05-04 15:30 51.84605 -8.61260 20545 ft 343 kts 359°
2026-05-04 15:30 51.91667 -8.62221 19409 ft 336 kts 358°
2026-05-04 15:31 51.96274 -8.62849 18673 ft 333 kts 358°
2026-05-04 15:31 51.98576 -8.63163 18279 ft 331 kts 357°
2026-05-04 15:32 52.05402 -8.64096 17096 ft 325 kts 357°
2026-05-04 15:32 52.09904 -8.64712 16357 ft 324 kts 357°
2026-05-04 15:33 52.14362 -8.65325 15652 ft 319 kts 357°
2026-05-04 15:34 52.20987 -8.66236 14580 ft 320 kts 356°
2026-05-04 15:34 52.23200 -8.66379 14193 ft 318 kts
2026-05-04 15:34 52.27510 -8.64616 13232 ft 319 kts 16°
2026-05-04 15:35 52.31753 -8.62660 12488 ft 314 kts 16°
2026-05-04 15:35 52.33850 -8.61708 12142 ft 311 kts 16°
2026-05-04 15:35 52.35928 -8.60771 11785 ft 309 kts 15°
2026-05-04 15:36 52.40019 -8.58942 11101 ft 305 kts 15°
2026-05-04 15:36 52.42061 -8.58031 10755 ft 303 kts 15°
2026-05-04 15:36 52.44086 -8.57129 10517 ft 298 kts 15°
2026-05-04 15:37 52.46056 -8.56251 10380 ft 289 kts 15°
2026-05-04 15:37 52.47966 -8.55400 10260 ft 281 kts 15°
2026-05-04 15:37 52.49824 -8.54571 10133 ft 272 kts 15°
2026-05-04 15:37 52.51632 -8.53764 9944 ft 268 kts 15°
2026-05-04 15:38 52.53433 -8.52960 9659 ft 267 kts 15°
2026-05-04 15:38 52.55220 -8.52161 9383 ft 265 kts 15°
2026-05-04 15:38 52.56968 -8.51379 9133 ft 263 kts 15°
2026-05-04 15:38 52.58739 -8.50586 8864 ft 265 kts 15°
2026-05-04 15:39 52.60517 -8.49789 8570 ft 265 kts 15°
2026-05-04 15:39 52.62293 -8.48993 8284 ft 264 kts 15°
2026-05-04 15:39 52.65820 -8.47408 7751 ft 261 kts 14°
2026-05-04 15:40 52.67572 -8.46621 7479 ft 260 kts 15°
2026-05-04 15:40 52.69313 -8.45837 7211 ft 259 kts 14°
2026-05-04 15:40 52.71052 -8.45054 6949 ft 259 kts 14°
2026-05-04 15:40 52.72786 -8.44273 6686 ft 258 kts 14°
2026-05-04 15:41 52.74495 -8.43503 6428 ft 258 kts 14°
2026-05-04 15:41 52.76252 -8.43049 6107 ft 256 kts 353°
2026-05-04 15:41 52.77878 -8.44066 5881 ft 250 kts 325°
2026-05-04 15:41 52.79152 -8.45912 5800 ft 236 kts 314°
2026-05-04 15:42 52.80259 -8.47805 5695 ft 222 kts 313°
2026-05-04 15:42 52.81295 -8.49586 5575 ft 209 kts 314°
2026-05-04 15:42 52.82276 -8.51258 5464 ft 197 kts 314°
2026-05-04 15:42 52.83221 -8.52863 5188 ft 194 kts 314°
2026-05-04 15:43 52.84148 -8.54420 4898 ft 193 kts 314°
2026-05-04 15:43 52.85052 -8.56039 4597 ft 191 kts 303°
2026-05-04 15:43 52.85430 -8.58095 4341 ft 188 kts 272°
2026-05-04 15:43 52.85008 -8.60104 4080 ft 186 kts 236°
2026-05-04 15:44 52.84338 -8.61900 3834 ft 183 kts 243°
2026-05-04 15:44 52.83683 -8.63674 3666 ft 180 kts 237°
2026-05-04 15:44 52.82966 -8.65359 3492 ft 180 kts 236°
2026-05-04 15:44 52.82212 -8.67006 3338 ft 180 kts 236°
2026-05-04 15:45 52.81442 -8.68652 3166 ft 183 kts 236°
2026-05-04 15:45 52.80669 -8.70289 3019 ft 180 kts 235°
2026-05-04 15:45 52.79906 -8.71903 2923 ft 183 kts 236°
2026-05-04 15:45 52.79131 -8.73545 2672 ft 178 kts 236°
2026-05-04 15:46 52.78382 -8.75125 2443 ft 171 kts 236°
2026-05-04 15:46 52.77674 -8.76624 2200 ft 161 kts 236°
2026-05-04 15:46 52.76992 -8.78071 2032 ft 160 kts 235°
2026-05-04 15:46 52.76299 -8.79541 1822 ft 159 kts 236°
2026-05-04 15:47 52.75854 -8.80481 1629 ft 157 kts 235°
2026-05-04 15:47 52.75193 -8.81884 1430 ft 154 kts 236°
2026-05-04 15:47 52.74530 -8.83290 1187 ft 157 kts 236°
2026-05-04 15:47 52.73866 -8.84699 997 ft 155 kts 236°
2026-05-04 15:48 52.73002 -8.86538 764 ft 150 kts 237°
2026-05-04 15:48 52.72363 -8.87892 522 ft 147 kts 237°
2026-05-04 15:48 52.71341 -8.90080 171 ft 146 kts 236°
2026-05-04 15:49 52.70719 -8.91371 28 ft 139 kts 238°
2026-05-04 15:49 52.70210 -8.92468 32 ft 83 kts 232°
2026-05-04 15:49 52.69982 -8.92954 36 ft 15 kts 212°
2026-05-04 15:49 52.69886 -8.92907 28 ft 18 kts 134°
2026-05-04 15:50 52.69878 -8.92893 27 ft 3 kts 135°
2026-05-04 15:50 52.69834 -8.92822 24 ft 9 kts 136°
2026-05-04 15:50 52.69802 -8.92769 22 ft 10 kts 134°
2026-05-04 15:50 52.69754 -8.92692 22 ft 9 kts 136°
2026-05-04 15:51 52.69709 -8.92618 22 ft 9 kts 134°
2026-05-04 15:51 52.69663 -8.92545 22 ft 9 kts 135°
2026-05-04 15:51 52.69618 -8.92472 21 ft 10 kts 135°
2026-05-04 15:51 52.69571 -8.92395 21 ft 9 kts 136°
2026-05-04 15:52 52.69531 -8.92311 23 ft 9 kts 119°
2026-05-04 15:52 52.69502 -8.92209 21 ft 10 kts 111°
2026-05-04 15:52 52.69483 -8.92151 21 ft 2 kts 159°
2026-05-04 15:52 52.69465 -8.92156 21 ft 3 kts 188°
2026-05-04 15:53 52.69441 -8.92159 24 ft 4 kts 183°
2026-05-04 15:53 52.69408 -8.92163 21 ft 5 kts 185°
2026-05-04 15:53 52.69401 -8.92164 21 ft 1 kts 185°
2026-05-04 15:53 52.69390 -8.92166 21 ft 2 kts 185°
2026-05-04 15:54 52.69384 -8.92167 21 ft 1 kts 185°
2026-05-04 15:54 52.69382 -8.92167 22 ft 0 kts 185°